OK4ZAW-16 Weather Reports


time (UTC)temp
C
wind
direction
speed
KPH
gust
KPH
rain 1hr
cm
rain 24hr
cm
rain mn
cm
humidity
%
barometer
mb
20260507020918 6 0 3.2 8.0 0.00 0.00 0.00 10 1009.6
20260507020222 6 0 1.6 4.8 0.00 0.00 0.00 10 1009.6
20260507015526 6 0 1.6 3.2 0.00 0.00 0.00 10 1009.6
20260507014830 6 0 0.0 1.6 0.00 0.00 0.00 10 1009.8
20260507014135 6 0 0.0 1.6 0.00 0.00 0.00 10 1009.9
20260507013439 6 0 0.0 1.6 0.00 0.00 0.00 10 1009.8
20260507012743 6 0 1.6 1.6 0.00 0.00 0.00 10 1009.7
20260507012047 6 0 1.6 3.2 0.00 0.00 0.00 10 1009.5
20260507011351 6 0 1.6 3.2 0.00 0.00 0.00 10 1009.5
20260507010655 6 0 1.6 3.2 0.00 0.00 0.00 10 1009.3
20260507005959 6 0 1.6 1.6 0.00 0.00 0.00 10 1009.1
20260507005305 6 0 0.0 1.6 0.00 0.00 0.00 10 1009.2
20260507004608 6 0 1.6 4.8 0.00 0.00 0.00 10 1009.3
20260507003912 6 0 1.6 3.2 0.00 0.00 0.00 10 1009.0
20260507003216 6 0 1.6 4.8 0.00 0.00 0.00 10 1008.8
20260507002520 6 0 1.6 4.8 0.00 0.00 0.00 10 1008.7
20260507001824 6 0 1.6 3.2 0.00 0.00 0.00 10 1008.9
20260507001128 6 0 1.6 3.2 0.00 0.00 0.00 10 1008.9
20260507000434 6 0 1.6 3.2 0.00 0.00 0.00 10 1009.0
20260506235040 6 0 1.6 3.2 0.00 0.00 0.00 10 1009.1
20260506234344 6 0 3.2 6.4 0.00 0.00 0.00 10 1009.3
20260506233648 6 0 3.2 6.4 0.00 0.00 0.00 10 1009.3
20260506232953 7 0 3.2 6.4 0.00 0.00 0.00 10 1009.2
20260506232257 7 0 3.2 4.8 0.00 0.00 0.00 10 1009.3
20260506231601 7 0 1.6 3.2 0.00 0.00 0.00 10 1009.4
20260506230905 7 0 1.6 3.2 0.00 0.00 0.00 10 1009.3
20260506230209 7 0 3.2 8.0 0.00 0.00 0.00 10 1009.5
20260506225513 7 0 1.6 6.4 0.00 0.00 0.00 10 1009.2
20260506224817 7 0 1.6 4.8 0.00 0.00 0.00 10 1009.3
20260506224121 7 0 1.6 3.2 0.00 0.00 0.00 10 1009.2
20260506223425 7 0 1.6 4.8 0.00 0.00 0.00 10 1009.0
20260506222729 7 0 1.6 3.2 0.00 0.00 0.00 10 1008.9
20260506222033 7 0 1.6 3.2 0.00 0.00 0.00 10 1008.8
20260506221336 0 0 0.0 0.0 0.00 0.00 0.00
20260506214939 7 0 3.2 6.4 0.00 0.00 0.00 10 1008.3
20260506214243 0 0 0.0 0.0 0.00 0.00 0.00
20260506211406 6 0 3.2 4.8 0.00 0.00 0.00 10 1008.4
20260506210710 6 0 3.2 4.8 0.00 0.00 0.00 10 1008.4
20260506205318 7 0 3.2 4.8 0.00 0.00 0.00 10 1008.4
20260506204622 6 0 1.6 4.8 0.00 0.00 0.00 10 1008.4
20260506203926 6 0 3.2 4.8 0.00 0.00 0.00 10 1008.5
20260506203230 6 0 3.2 4.8 0.00 0.00 0.00 10 1008.5
20260506202534 6 0 1.6 4.8 0.00 0.00 0.00 10 1008.4
20260506201838 7 0 1.6 4.8 0.00 0.00 0.00 10 1008.4
20260506201142 7 0 1.6 4.8 0.00 0.00 0.00 10 1008.2
20260506200446 7 0 1.6 6.4 0.00 0.00 0.00 10 1008.2
20260506195750 0 0 0.0 0.0 0.00 0.00 0.00
20260506080713 8 0 6.4 8.0 0.00 0.00 0.00 10 1009.1
20260506073232 7 0 8.0 12.9 0.00 0.00 0.00 10 1008.7
20260506072537 7 0 4.8 9.7 0.00 0.00 0.00 10 1008.7
20260506071840 7 0 6.4 9.7 0.00 0.00 0.00 10 1008.5
20260506071144 7 0 8.0 11.3 0.00 0.00 0.00 10 1008.4
20260506070448 7 0 8.0 12.9 0.00 0.00 0.00 10 1008.5
20260506062312 7 0 8.0 12.9 0.00 0.00 0.00 10 1008.2
20260506061616 7 0 8.0 11.3 0.00 0.00 0.00 10 1008.2
20260506060920 7 0 8.0 11.3 0.00 0.00 0.00 10 1007.9
20260506060224 7 0 8.0 11.3 0.00 0.00 0.00 10 1008.2
20260506051352 7 0 8.0 0.0 0.00 0.00 0.00 10 1007.9
20260506050656 7 0 8.0 12.9 0.00 0.00 0.00 10 1007.8
20260506044608 7 0 8.0 12.9 0.00 0.00 0.00 10 1007.7
20260506043912 7 0 0.0 0.0 0.00 0.00 0.00 10 1007.6
20260506043043 0 0 0.0 0.0 0.00 0.00 0.00
20260506035504 6 0 6.4 9.7 0.00 0.00 0.00 10 1007.3
20260506034808 6 0 6.4 8.0 0.00 0.00 0.00 10 1007.4
20260506034112 6 0 4.8 8.0 0.00 0.00 0.00 10 1007.3
20260506033416 6 0 6.4 9.7 0.00 0.00 0.00 10 1007.3
20260506032720 6 0 4.8 8.0 0.00 0.00 0.00 10 1007.4
20260506030633 6 0 4.8 6.4 0.00 0.00 0.00 10 1007.3
20260506025937 6 0 4.8 6.4 0.00 0.00 0.00 10 1007.1
20260506025241 6 0 4.8 6.4 0.00 0.00 0.00 10 1007.1
20260506024545 6 0 4.8 6.4 0.00 0.00 0.00 10 1007.1
20260506023849 6 0 4.8 8.0 0.00 0.00 0.00 10 1007.1
20260506023153 6 0 4.8 6.4 0.00 0.00 0.00 10 1007.1
20260506022457 7 0 4.8 8.0 0.00 0.00 0.00 10 1007.2
20260506021801 7 0 4.8 8.0 0.00 0.00 0.00 10 1006.9